Time,TemperatureF,DewpointF,PressureIn,WindDirection,WindDirectionDegrees,WindSpeedMPH,WindSpeedGustMPH,Humidity,HourlyPrecipIn,Conditions,Clouds,dailyrainin,SoftwareType,DateUTC
2013-05-23 00:08:00,70.6,69.0,29.94,WSW,247,0.0,1.0,94,0.00,,,0.00,weatherlink.com 1.10,2013-05-23 04:08:00,
2013-05-23 01:23:00,69.5,68.0,29.94,WSW,247,0.0,1.0,95,0.00,,,0.00,weatherlink.com 1.10,2013-05-23 05:23:00,
2013-05-23 01:38:00,69.4,68.0,29.94,WSW,247,0.0,0.0,96,0.00,,,0.00,weatherlink.com 1.10,2013-05-23 05:38:00,
2013-05-23 01:53:00,69.4,68.0,29.94,WSW,247,0.0,1.0,96,0.00,,,0.00,weatherlink.com 1.10,2013-05-23 05:53:00,
2013-05-23 02:08:00,69.3,68.0,29.94,WSW,247,0.0,1.0,96,0.00,,,0.00,weatherlink.com 1.10,2013-05-23 06:08:00,
2013-05-23 02:23:00,69.0,68.0,29.94,WSW,247,0.0,1.0,96,0.00,,,0.00,weatherlink.com 1.10,2013-05-23 06:23:00,
2013-05-23 02:38:00,69.0,68.0,29.93,WSW,247,0.0,0.0,96,0.00,,,0.00,weatherlink.com 1.10,2013-05-23 06:38:00,
2013-05-23 02:53:00,69.2,68.0,29.93,WSW,247,0.0,0.0,97,0.00,,,0.00,weatherlink.com 1.10,2013-05-23 06:53:00,
2013-05-23 03:08:00,69.2,68.0,29.92,WSW,247,0.0,0.0,97,0.00,,,0.00,weatherlink.com 1.10,2013-05-23 07:08:00,
2013-05-23 03:23:00,69.3,69.0,29.92,WSW,247,0.0,1.0,97,0.00,,,0.00,weatherlink.com 1.10,2013-05-23 07:23:00,
2013-05-23 03:38:00,69.4,69.0,29.92,WSW,247,0.0,1.0,97,0.00,,,0.00,weatherlink.com 1.10,2013-05-23 07:38:00,
2013-05-23 03:53:00,69.4,69.0,29.93,WSW,247,0.0,0.0,97,0.00,,,0.00,weatherlink.com 1.10,2013-05-23 07:53:00,
2013-05-23 04:08:00,69.5,69.0,29.93,WSW,247,0.0,1.0,97,0.00,,,0.00,weatherlink.com 1.10,2013-05-23 08:08:00,
2013-05-23 04:23:00,69.5,69.0,29.93,WSW,247,0.0,1.0,97,0.00,,,0.00,weatherlink.com 1.10,2013-05-23 08:23:00,
2013-05-23 04:38:00,69.5,69.0,29.94,WSW,247,0.0,1.0,97,0.00,,,0.00,weatherlink.com 1.10,2013-05-23 08:38:00,
2013-05-23 04:53:00,69.7,69.0,29.93,WSW,247,0.0,1.0,97,0.00,,,0.00,weatherlink.com 1.10,2013-05-23 08:53:00,
2013-05-23 05:08:00,69.9,69.0,29.93,WSW,247,0.0,0.0,98,0.00,,,0.00,weatherlink.com 1.10,2013-05-23 09:08:00,
2013-05-23 05:23:00,70.0,69.0,29.93,WSW,247,0.0,1.0,98,0.00,,,0.00,weatherlink.com 1.10,2013-05-23 09:23:00,
2013-05-23 05:38:00,70.0,69.0,29.93,WSW,247,0.0,1.0,98,0.00,,,0.00,weatherlink.com 1.10,2013-05-23 09:38:00,
2013-05-23 05:53:00,69.9,69.0,29.92,WSW,247,0.0,1.0,98,0.00,,,0.00,weatherlink.com 1.10,2013-05-23 09:53:00,
2013-05-23 06:08:00,69.8,69.0,29.92,WSW,247,0.0,0.0,98,0.00,,,0.00,weatherlink.com 1.10,2013-05-23 10:08:00,
2013-05-23 06:23:00,69.8,69.0,29.92,WSW,247,0.0,1.0,98,0.00,,,0.00,weatherlink.com 1.10,2013-05-23 10:23:00,
2013-05-23 06:38:00,69.8,69.0,29.93,WSW,247,0.0,1.0,98,0.00,,,0.00,weatherlink.com 1.10,2013-05-23 10:38:00,
2013-05-23 06:53:00,69.8,69.0,29.93,WSW,247,0.0,1.0,98,0.00,,,0.00,weatherlink.com 1.10,2013-05-23 10:53:00,
2013-05-23 07:08:00,70.2,70.0,29.93,WSW,247,0.0,1.0,98,0.00,,,0.00,weatherlink.com 1.10,2013-05-23 11:08:00,
2013-05-23 07:23:00,70.8,70.0,29.93,WSW,247,0.0,1.0,98,0.00,,,0.00,weatherlink.com 1.10,2013-05-23 11:23:00,
2013-05-23 07:39:00,71.0,70.0,29.93,West,266,1.0,2.0,97,0.00,,,0.00,weatherlink.com 1.10,2013-05-23 11:39:00,
2013-05-23 07:54:00,71.5,70.0,29.93,WNW,290,0.0,3.0,95,0.00,,,0.00,weatherlink.com 1.10,2013-05-23 11:54:00,
2013-05-23 08:09:00,71.7,70.0,29.94,WNW,292,1.0,4.0,94,0.00,,,0.00,weatherlink.com 1.10,2013-05-23 12:09:00,
2013-05-23 08:24:00,71.7,70.0,29.94,WNW,300,2.0,3.0,93,0.00,,,0.00,weatherlink.com 1.10,2013-05-23 12:24:00,
2013-05-23 08:39:00,71.7,70.0,29.94,WNW,300,2.0,2.0,93,0.00,,,0.00,weatherlink.com 1.10,2013-05-23 12:39:00,
2013-05-23 08:54:00,72.1,70.0,29.95,WNW,284,0.0,4.0,93,0.00,,,0.00,weatherlink.com 1.10,2013-05-23 12:54:00,
2013-05-23 09:09:00,72.9,70.0,29.95,NW,304,0.0,4.0,89,0.00,,,0.00,weatherlink.com 1.10,2013-05-23 13:09:00,
2013-05-23 09:24:00,74.0,70.0,29.95,WNW,285,1.0,3.0,88,0.00,,,0.00,weatherlink.com 1.10,2013-05-23 13:24:00,
2013-05-23 09:39:00,74.4,69.0,29.95,WNW,292,2.0,4.0,84,0.00,,,0.00,weatherlink.com 1.10,2013-05-23 13:39:00,
2013-05-23 09:54:00,76.4,71.0,29.95,WNW,292,0.0,4.0,82,0.00,,,0.00,weatherlink.com 1.10,2013-05-23 13:54:00,
2013-05-23 10:09:00,75.9,69.0,29.95,WNW,296,1.0,4.0,80,0.00,,,0.00,weatherlink.com 1.10,2013-05-23 14:09:00,
2013-05-23 10:24:00,77.3,69.0,29.95,NW,314,3.0,5.0,76,0.00,,,0.00,weatherlink.com 1.10,2013-05-23 14:24:00,
2013-05-23 10:39:00,79.1,70.0,29.94,West,278,2.0,4.0,73,0.00,,,0.00,weatherlink.com 1.10,2013-05-23 14:39:00,
2013-05-23 10:54:00,79.3,71.0,29.94,West,269,0.0,2.0,76,0.00,,,0.00,weatherlink.com 1.10,2013-05-23 14:54:00,
2013-05-23 11:09:00,79.8,70.0,29.94,WNW,294,1.0,4.0,73,0.00,,,0.00,weatherlink.com 1.10,2013-05-23 15:09:00,
2013-05-23 11:24:00,81.1,70.0,29.94,WNW,295,0.0,4.0,69,0.00,,,0.00,weatherlink.com 1.10,2013-05-23 15:24:00,
2013-05-23 11:39:00,81.9,70.0,29.95,WSW,252,3.0,4.0,67,0.00,,,0.00,weatherlink.com 1.10,2013-05-23 15:39:00,
2013-05-23 11:54:00,81.7,69.0,29.95,West,265,2.0,6.0,66,0.00,,,0.00,weatherlink.com 1.10,2013-05-23 15:54:00,
2013-05-23 12:24:00,83.8,72.0,29.94,NNE,32,0.0,2.0,67,0.00,,,0.00,weatherlink.com 1.10,2013-05-23 16:24:00,
2013-05-23 12:39:00,82.7,71.0,29.94,SSE,157,2.0,3.0,67,0.00,,,0.00,weatherlink.com 1.10,2013-05-23 16:39:00,
2013-05-23 12:55:00,82.5,71.0,29.93,WNW,298,0.0,2.0,68,0.00,,,0.00,weatherlink.com 1.10,2013-05-23 16:55:00,
2013-05-23 13:09:00,81.6,70.0,29.93,WNW,289,0.0,2.0,68,0.00,,,0.00,weatherlink.com 1.10,2013-05-23 17:09:00,
2013-05-23 13:24:00,84.5,73.0,29.93,NNW,329,1.0,3.0,68,0.00,,,0.00,weatherlink.com 1.10,2013-05-23 17:24:00,
2013-05-23 13:39:00,84.8,70.0,29.92,SSW,213,3.0,4.0,61,0.00,,,0.00,weatherlink.com 1.10,2013-05-23 17:39:00,
2013-05-23 13:54:00,84.5,70.0,29.92,North,360,1.0,4.0,63,0.00,,,0.00,weatherlink.com 1.10,2013-05-23 17:54:00,
2013-05-23 14:09:00,85.6,70.0,29.91,WNW,292,1.0,4.0,60,0.00,,,0.00,weatherlink.com 1.10,2013-05-23 18:09:00,
2013-05-23 14:24:00,86.6,70.0,29.91,East,90,1.0,5.0,58,0.00,,,0.00,weatherlink.com 1.10,2013-05-23 18:24:00,
2013-05-23 14:39:00,87.2,71.0,29.90,ESE,123,2.0,4.0,58,0.00,,,0.00,weatherlink.com 1.10,2013-05-23 18:39:00,
2013-05-23 14:54:00,86.4,69.0,29.89,WNW,292,1.0,7.0,56,0.00,,,0.00,weatherlink.com 1.10,2013-05-23 18:54:00,
2013-05-23 15:09:00,86.7,70.0,29.89,WSW,243,1.0,4.0,57,0.00,,,0.00,weatherlink.com 1.10,2013-05-23 19:09:00,
2013-05-23 15:24:00,86.5,69.0,29.89,NNW,344,1.0,6.0,57,0.00,,,0.00,weatherlink.com 1.10,2013-05-23 19:24:00,
2013-05-23 15:40:00,86.1,68.0,29.88,WNW,299,0.0,7.0,55,0.00,,,0.00,weatherlink.com 1.10,2013-05-23 19:40:00,
2013-05-23 15:55:00,85.4,68.0,29.88,WNW,292,1.0,6.0,57,0.00,,,0.00,weatherlink.com 1.10,2013-05-23 19:55:00,
2013-05-23 16:10:00,85.0,68.0,29.88,NW,318,0.0,4.0,57,0.00,,,0.00,weatherlink.com 1.10,2013-05-23 20:10:00,
2013-05-23 16:25:00,85.0,68.0,29.87,ENE,72,0.0,2.0,56,0.00,,,0.00,weatherlink.com 1.10,2013-05-23 20:25:00,
2013-05-23 16:40:00,86.2,67.0,29.87,NNW,335,3.0,5.0,53,0.00,,,0.00,weatherlink.com 1.10,2013-05-23 20:40:00,
2013-05-23 16:55:00,86.1,67.0,29.86,West,279,2.0,4.0,54,0.00,,,0.00,weatherlink.com 1.10,2013-05-23 20:55:00,
2013-05-23 17:10:00,86.1,67.0,29.86,West,265,3.0,4.0,54,0.00,,,0.00,weatherlink.com 1.10,2013-05-23 21:10:00,
2013-05-23 17:25:00,85.9,68.0,29.86,WNW,283,2.0,3.0,55,0.00,,,0.00,weatherlink.com 1.10,2013-05-23 21:25:00,
2013-05-23 17:40:00,86.0,67.0,29.86,WNW,294,1.0,3.0,53,0.00,,,0.00,weatherlink.com 1.10,2013-05-23 21:40:00,
2013-05-23 17:55:00,86.2,66.0,29.86,NW,310,0.0,5.0,52,0.00,,,0.00,weatherlink.com 1.10,2013-05-23 21:55:00,
2013-05-23 18:10:00,86.4,65.0,29.86,West,270,2.0,3.0,49,0.00,,,0.00,weatherlink.com 1.10,2013-05-23 22:10:00,
2013-05-23 18:25:00,86.3,66.0,29.86,West,277,1.0,5.0,50,0.00,,,0.00,weatherlink.com 1.10,2013-05-23 22:25:00,
2013-05-23 18:40:00,86.0,67.0,29.85,WNW,296,1.0,3.0,54,0.00,,,0.00,weatherlink.com 1.10,2013-05-23 22:40:00,
2013-05-23 18:55:00,85.4,67.0,29.85,WNW,298,1.0,2.0,54,0.00,,,0.00,weatherlink.com 1.10,2013-05-23 22:55:00,
2013-05-23 19:10:00,83.8,66.0,29.85,SSW,207,1.0,2.0,56,0.00,,,0.00,weatherlink.com 1.10,2013-05-23 23:10:00,
2013-05-23 19:25:00,82.7,66.0,29.85,WNW,291,0.0,3.0,58,0.00,,,0.00,weatherlink.com 1.10,2013-05-23 23:25:00,
2013-05-23 19:40:00,81.3,66.0,29.86,WNW,289,0.0,1.0,61,0.00,,,0.00,weatherlink.com 1.10,2013-05-23 23:40:00,
2013-05-23 19:55:00,80.1,67.0,29.86,WNW,289,0.0,1.0,65,0.00,,,0.00,weatherlink.com 1.10,2013-05-23 23:55:00,
2013-05-23 20:10:00,78.3,68.0,29.87,WNW,289,0.0,1.0,70,0.00,,,0.00,weatherlink.com 1.10,2013-05-24 00:10:00,
2013-05-23 20:25:00,77.0,69.0,29.87,WNW,289,0.0,1.0,75,0.00,,,0.00,weatherlink.com 1.10,2013-05-24 00:25:00,
2013-05-23 20:40:00,76.2,68.0,29.88,WNW,289,0.0,1.0,76,0.00,,,0.00,weatherlink.com 1.10,2013-05-24 00:40:00,
2013-05-23 20:55:00,75.5,67.0,29.88,WNW,289,0.0,1.0,75,0.00,,,0.00,weatherlink.com 1.10,2013-05-24 00:55:00,
2013-05-23 21:10:00,74.2,67.0,29.88,WNW,289,1.0,1.0,78,0.00,,,0.00,weatherlink.com 1.10,2013-05-24 01:10:00,
2013-05-23 21:25:00,73.0,67.0,29.89,WNW,289,0.0,1.0,82,0.00,,,0.00,weatherlink.com 1.10,2013-05-24 01:25:00,
2013-05-23 21:40:00,72.0,67.0,29.89,WNW,289,0.0,1.0,83,0.00,,,0.00,weatherlink.com 1.10,2013-05-24 01:40:00,
2013-05-23 21:55:00,71.4,67.0,29.90,WNW,289,0.0,1.0,85,0.00,,,0.00,weatherlink.com 1.10,2013-05-24 01:55:00,
2013-05-23 22:10:00,70.9,66.0,29.90,WNW,289,1.0,1.0,85,0.00,,,0.00,weatherlink.com 1.10,2013-05-24 02:10:00,
2013-05-23 22:25:00,70.4,66.0,29.91,WNW,289,0.0,1.0,86,0.00,,,0.00,weatherlink.com 1.10,2013-05-24 02:25:00,
2013-05-23 22:40:00,70.0,66.0,29.91,WNW,289,0.0,1.0,87,0.00,,,0.00,weatherlink.com 1.10,2013-05-24 02:40:00,
2013-05-23 22:55:00,69.5,66.0,29.92,WNW,289,0.0,1.0,87,0.00,,,0.00,weatherlink.com 1.10,2013-05-24 02:55:00,
2013-05-23 23:10:00,69.1,66.0,29.92,WNW,289,0.0,1.0,88,0.00,,,0.00,weatherlink.com 1.10,2013-05-24 03:10:00,
2013-05-23 23:25:00,68.9,65.0,29.91,WNW,289,1.0,1.0,88,0.00,,,0.00,weatherlink.com 1.10,2013-05-24 03:25:00,
2013-05-23 23:40:00,68.6,65.0,29.91,WNW,289,0.0,1.0,87,0.00,,,0.00,weatherlink.com 1.10,2013-05-24 03:40:00,
2013-05-23 23:55:00,68.8,65.0,29.91,WNW,289,0.0,1.0,88,0.00,,,0.00,weatherlink.com 1.10,2013-05-24 03:55:00,